Duncan, OK

11:40 PM CST on November 18, 2019 (GMT -0600)
Halliburton

Weather History for KDUC - September, 2019

Change the Weather History Date:

Thursday, September 26, 2019

  Actual Average (WUND) Record (WUND)
Temperature  
Mean Temperature 80 °F -  
Max Temperature 89 °F - - (-1)
Min Temperature 72 °F - - (-1)
Cooling Degree Days 16    
Growing Degree Days 30 (Base 50)    
Moisture  
Dew Point 70 °F    
Average Humidity 71    
Maximum Humidity 88    
Minimum Humidity 54    
Precipitation  
Precipitation 0.00 in - - ()
Sea Level Pressure  
Sea Level Pressure 29.87 in    
Wind  
Wind Speed 11 mph (SE)    
Max Wind Speed 23 mph    
Max Gust Speed 29 mph    
Visibility 10 miles    
Events      
Averages and records for this station are not official NWS values.
T = Trace of Precipitation, MM = Missing Value Source: NWS Daily Summary

Daily Weather History Graph

Daily Weather History Graph

Search for Another Location

Airport or City:

Astronomy

Sep. 26, 2019 Rise Set
Actual Time 7:22 AM CDT 7:23 PM CDT
Civil Twilight 6:57 AM CDT 7:48 PM CDT
Nautical Twilight 6:28 AM CDT 8:17 PM CDT
Astronomical Twilight 5:58 AM CDT 8:46 PM CDT
Moon 4:41 AM CDT (9/26) 6:28 PM CDT (9/26)
Length of Visible Light 12h 50m
Length of Day
12h 00m
Waning Crescent, 6% of the Moon is Illuminated
Sep 26
Waning Crescent
Sep 28
New
Oct 5
First Quarter
Oct 13
Full
Oct 21
Last Quarter

Hourly Weather History & Observations

Time (CDT) Temp. Heat Index Dew Point Humidity Pressure Visibility Wind Dir Wind Speed Gust Speed Precip Events Conditions
12:15 AM 77.4 °F - 70.7 °F 80% 29.83 in 10.0 mi South 9.2 mph - N/A   Clear
12:35 AM 76.8 °F - 70.7 °F 81% 29.83 in 10.0 mi South 6.9 mph - N/A   Clear
12:55 AM 77.2 °F - 70.0 °F 78% 29.84 in 10.0 mi SSE 5.8 mph - N/A   Clear
1:15 AM 77.0 °F - 69.6 °F 78% 29.84 in 10.0 mi SSE 6.9 mph - N/A   Clear
1:35 AM 75.9 °F - 69.4 °F 80% 29.84 in 10.0 mi SSE 5.8 mph - N/A   Clear
1:55 AM 75.4 °F - 69.1 °F 81% 29.84 in 10.0 mi SSE 8.1 mph - N/A   Clear
2:15 AM 75.4 °F - 68.7 °F 80% 29.84 in 10.0 mi SSE 6.9 mph - N/A   Clear
2:35 AM 74.8 °F - 68.5 °F 81% 29.84 in 10.0 mi SSE 6.9 mph - N/A   Clear
2:55 AM 74.5 °F - 68.2 °F 81% 29.85 in 10.0 mi SSE 6.9 mph - N/A   Clear
3:15 AM 74.1 °F - 68.2 °F 82% 29.85 in 10.0 mi East 6.9 mph - N/A   Clear
3:35 AM 72.9 °F - 68.2 °F 85% 29.85 in 10.0 mi ESE 6.9 mph - N/A   Clear
3:55 AM 72.3 °F - 68.5 °F 88% 29.85 in 10.0 mi ESE 6.9 mph - N/A   Clear
4:15 AM 72.7 °F - 67.8 °F 85% 29.86 in 10.0 mi SSE 6.9 mph - N/A   Clear
4:35 AM 73.4 °F - 67.5 °F 82% 29.86 in 10.0 mi South 6.9 mph - N/A   Clear
4:55 AM 73.9 °F - 67.1 °F 79% 29.86 in 10.0 mi SE 6.9 mph - N/A   Clear
5:15 AM 73.9 °F - 66.7 °F 78% 29.86 in 10.0 mi SSE 6.9 mph - N/A   Clear
5:35 AM 73.6 °F - 66.7 °F 79% 29.87 in 10.0 mi SSE 4.6 mph - N/A   Clear
5:55 AM 72.7 °F - 66.9 °F 82% 29.88 in 10.0 mi ESE 5.8 mph - N/A   Clear
6:15 AM 72.5 °F - 66.9 °F 83% 29.89 in 10.0 mi East 6.9 mph - N/A   Clear
6:35 AM 72.9 °F - 67.3 °F 83% 29.90 in 10.0 mi ENE 8.1 mph - N/A   Mostly Cloudy
6:55 AM 72.1 °F - 67.1 °F 84% 29.91 in 10.0 mi ENE 11.5 mph - N/A   Scattered Clouds
7:15 AM 74.1 °F - 67.1 °F 79% 29.92 in 10.0 mi East 10.4 mph - N/A   Mostly Cloudy
7:35 AM 73.6 °F - 67.3 °F 81% 29.92 in 10.0 mi ESE 8.1 mph - N/A   Scattered Clouds
7:55 AM 73.8 °F - 67.5 °F 81% 29.93 in 10.0 mi East 10.4 mph - N/A   Scattered Clouds
8:15 AM 74.7 °F - 68.0 °F 80% 29.94 in 10.0 mi East 9.2 mph - N/A   Clear
9:15 AM 76.8 °F - 68.0 °F 74% 29.95 in 10.0 mi SE 19.6 mph 24.2 mph N/A   Clear
9:35 AM 77.2 °F - 67.5 °F 72% 29.96 in 10.0 mi SE 20.7 mph 26.5 mph N/A   Clear
9:55 AM 77.7 °F - 66.9 °F 69% 29.96 in 10.0 mi ESE 20.7 mph - N/A   Clear
10:15 AM 77.5 °F - 66.7 °F 69% 29.97 in 10.0 mi ESE 19.6 mph 28.8 mph N/A   Clear
10:35 AM 78.6 °F - 67.5 °F 68% 29.97 in 10.0 mi SE 19.6 mph 25.3 mph N/A   Clear
10:55 AM 79.9 °F - 68.0 °F 67% 29.96 in 10.0 mi ESE 23.0 mph 26.5 mph N/A   Clear
11:15 AM 79.9 °F - 68.2 °F 67% 29.97 in 10.0 mi SE 23.0 mph - N/A   Scattered Clouds
11:35 AM 81.7 °F 84.7 °F 68.4 °F 64% 29.97 in 10.0 mi SE 19.6 mph - N/A   Scattered Clouds
11:55 AM 81.7 °F 84.7 °F 68.4 °F 64% 29.96 in 10.0 mi SE 20.7 mph 26.5 mph N/A   Clear
12:15 PM 82.9 °F 86.5 °F 69.3 °F 63% 29.96 in 10.0 mi SE 18.4 mph 23.0 mph N/A   Clear
12:35 PM 82.9 °F 86.3 °F 68.7 °F 62% 29.95 in 10.0 mi SE 20.7 mph 26.5 mph N/A   Clear
12:55 PM 84.4 °F 88.5 °F 69.8 °F 61% 29.94 in 10.0 mi SSE 17.3 mph 21.9 mph N/A   Clear
1:15 PM 84.6 °F 88.8 °F 69.8 °F 61% 29.93 in 10.0 mi SSE 18.4 mph - N/A   Clear
1:35 PM 85.5 °F 89.8 °F 69.8 °F 59% 29.92 in 10.0 mi SSE 17.3 mph 24.2 mph N/A   Clear
1:55 PM 86.0 °F 90.7 °F 70.2 °F 59% 29.91 in 10.0 mi SSE 19.6 mph - N/A   Clear
2:15 PM 87.1 °F 92.4 °F 70.7 °F 58% 29.90 in 10.0 mi SSE 17.3 mph - N/A   Clear
2:35 PM 88.0 °F 93.8 °F 70.9 °F 57% 29.89 in 10.0 mi SSE 17.3 mph - N/A   Clear
2:55 PM 88.5 °F 94.4 °F 71.1 °F 56% 29.89 in 10.0 mi SE 16.1 mph 21.9 mph N/A   Clear
3:15 PM 88.5 °F 94.0 °F 70.7 °F 55% 29.88 in 10.0 mi SSE 16.1 mph 26.5 mph N/A   Clear
3:35 PM 88.9 °F 94.7 °F 70.9 °F 55% 29.87 in 10.0 mi SSE 15.0 mph 25.3 mph N/A   Clear
3:55 PM 89.2 °F 95.4 °F 71.1 °F 55% 29.86 in 10.0 mi SE 17.3 mph - N/A   Clear
4:15 PM 89.1 °F 95.0 °F 71.1 °F 55% 29.85 in 10.0 mi SE 17.3 mph - N/A   Clear
4:35 PM 89.8 °F 96.5 °F 71.8 °F 55% 29.84 in 10.0 mi SSE 16.1 mph 20.7 mph N/A   Clear
4:55 PM 88.9 °F 95.1 °F 71.6 °F 56% 29.84 in 10.0 mi SE 12.7 mph - N/A   Clear
5:15 PM 89.6 °F 95.7 °F 71.1 °F 54% 29.82 in 10.0 mi SSE 16.1 mph - N/A   Clear
5:35 PM 88.9 °F 95.1 °F 71.2 °F 56% 29.82 in 10.0 mi SSE 15.0 mph - N/A   Clear
5:55 PM 88.5 °F 94.9 °F 71.6 °F 57% 29.82 in 10.0 mi SSE 13.8 mph - N/A   Clear
6:15 PM 87.8 °F 94.3 °F 72.0 °F 59% 29.81 in 10.0 mi SSE 12.7 mph - N/A   Clear
6:35 PM 86.9 °F 93.7 °F 72.3 °F 62% 29.81 in 10.0 mi SSE 10.4 mph - N/A   Clear
6:55 PM 85.6 °F 92.2 °F 72.7 °F 65% 29.81 in 10.0 mi SSE 8.1 mph - N/A   Clear
7:15 PM 84.4 °F 90.3 °F 72.5 °F 67% 29.81 in 10.0 mi SE 9.2 mph - N/A   Clear
7:35 PM 82.8 °F 88.2 °F 72.5 °F 71% 29.81 in 10.0 mi SE 8.1 mph - N/A   Clear
7:55 PM 82.2 °F 87.6 °F 72.7 °F 73% 29.81 in 10.0 mi SE 9.2 mph - N/A   Clear
8:15 PM 82.0 °F 87.2 °F 72.5 °F 73% 29.81 in 10.0 mi SE 9.2 mph - N/A   Clear
8:35 PM 82.4 °F 87.4 °F 72.1 °F 71% 29.81 in 10.0 mi SSE 12.7 mph - N/A   Clear
8:55 PM 81.5 °F 86.3 °F 72.3 °F 74% 29.82 in 10.0 mi SE 10.4 mph - N/A   Clear
9:15 PM 81.0 °F 85.2 °F 72.1 °F 74% 29.82 in 10.0 mi SSE 10.4 mph - N/A   Clear
9:35 PM 81.0 °F 85.1 °F 71.6 °F 73% 29.83 in 10.0 mi SSE 11.5 mph - N/A   Clear
9:55 PM 81.1 °F 84.9 °F 70.7 °F 70% 29.83 in 10.0 mi SSE 11.5 mph - N/A   Clear
10:15 PM 80.6 °F 84.1 °F 70.3 °F 71% 29.83 in 10.0 mi SSE 13.8 mph - N/A   Clear
10:35 PM 80.1 °F 83.2 °F 70.0 °F 71% 29.83 in 10.0 mi SSE 11.5 mph - N/A   Clear
10:55 PM 79.3 °F - 70.0 °F 73% 29.83 in 10.0 mi SSE 12.7 mph - N/A   Clear
11:15 PM 78.6 °F - 69.6 °F 74% 29.82 in 10.0 mi SSE 10.4 mph - N/A   Clear
11:35 PM 77.9 °F - 69.4 °F 75% 29.82 in 10.0 mi SSE 10.4 mph - N/A   Clear
11:55 PM 77.4 °F - 69.3 °F 76% 29.82 in 10.0 mi SSE 9.2 mph - N/A   Clear